Location: Bosdarros
(43.2167°N, 0.3667°W)
Time: 14:43:18
(UTC+00:00)

Terra - Pass Details

Date: 22 April 2021
Orbit: 701 x 703 km, 98.2° (Epoch: 13 May)

Event Time Altitude Azimuth Distance (km) Brightness Sun altitude
Exits shadow 22:42:43 31° 290° (WNW) 1,233 3.3 -31.5°
Drops below altitude 10° 22:46:01 10° 329° (NNW) 2,178 5.2 -31.8°
Sets 22:48:28 0° 338° (NNW) 3,101 6.3 -31.9°
